Barrow, AK

5:10 PM AKDT on June 19, 2018 (GMT -0800)
Wiley Post-Will Rogers Memorial

Weather History for PABR - November, 2017

Change the Weather History Date:

Tuesday, November 7, 2017

  Actual Average Record
Temperature  
Mean Temperature 28 °F 4 °F  
Max Temperature 34 °F 10 °F 35 °F (1998)
Min Temperature 22 °F -1 °F -23 °F (1955)
Degree Days  
Heating Degree Days 37 61  
Month to date heating degree days 156 415  
Since 1 July heating degree days 3656 4438  
Cooling Degree Days 0 0  
Month to date cooling degree days 0 0  
Year to date cooling degree days 0 0  
Moisture  
Dew Point 22 °F    
Average Humidity 76    
Maximum Humidity 82    
Minimum Humidity 70    
Precipitation  
Precipitation T in 0.01 in 0.26 in (1925)
Month to date precipitation 0.21 0.06  
Year to date precipitation 7.25 4.24  
Snow  
Snow 0.00 in 0.30 in 5.00 in (1925)
Month to date snowfall 1.9 1.7  
Since 1 July snowfall 9.8 16.3  
Since 1 September snowfall 9.0 15.2  
Snow Depth 1.00 in    
Sea Level Pressure  
Sea Level Pressure 29.72 in    
Wind  
Wind Speed 22 mph (South)    
Max Wind Speed 33 mph    
Max Gust Speed 41 mph    
Visibility 10 miles    
Events Rain    
T = Trace of Precipitation, MM = Missing Value Source: NWS Daily Summary

Daily Weather History Graph

Daily Weather History Graph

Search for Another Location

Airport or City:

Astronomy

Nov. 07, 2017 Rise Set
Actual Time 10:54 AM AKST 3:26 PM AKST
Civil Twilight 9:19 AM AKST 5:00 PM AKST
Nautical Twilight 7:56 AM AKST 6:23 PM AKST
Astronomical Twilight 6:40 AM AKST 7:39 PM AKST
Moon No Moon Rise No Moon Set
Length of Visible Light 7h 40m
Length of Day
4h 31m
Waning Gibbous, 82% of the Moon is Illuminated
Nov 7
Waning Gibbous
Nov 10
Last Quarter
Nov 18
New
Nov 26
First Quarter
Dec 3
Full

Hourly Weather History & Observations

Time (AKST) Temp. Windchill Dew Point Humidity Pressure Visibility Wind Dir Wind Speed Gust Speed Precip Events Conditions
12:53 AM 30.0 °F 17.2 °F 21.9 °F 72% 29.88 in 10.0 mi South 20.7 mph - N/A   Clear
1:53 AM 28.9 °F 15.8 °F 21.9 °F 75% 29.86 in 10.0 mi South 20.7 mph - N/A   Clear
2:53 AM 30.0 °F 16.6 °F 23.0 °F 75% 29.83 in 10.0 mi South 23.0 mph - N/A   Clear
3:53 AM 28.9 °F 15.1 °F 21.9 °F 75% 29.81 in 10.0 mi South 23.0 mph - N/A   Clear
4:53 AM 30.0 °F 16.0 °F 23.0 °F 75% 29.77 in 10.0 mi South 25.3 mph - N/A   Clear
5:53 AM 30.0 °F 16.9 °F 24.1 °F 79% 29.75 in 10.0 mi South 21.9 mph - N/A   Mostly Cloudy
6:53 AM 34.0 °F 19.7 °F 25.0 °F 70% 29.72 in 4.0 mi South 33.4 mph 41.4 mph 0.00 in Rain Light Rain
7:53 AM 30.9 °F 16.4 °F 25.0 °F 79% 29.70 in 8.0 mi South 28.8 mph 33.4 mph 0.00 in   Mostly Cloudy
8:53 AM 32.0 °F 18.6 °F 25.0 °F 75% 29.70 in 10.0 mi South 25.3 mph - N/A   Overcast
9:53 AM 32.0 °F 19.2 °F 25.0 °F 75% 29.70 in 10.0 mi South 23.0 mph 31.1 mph N/A   Overcast
10:53 AM 30.0 °F 17.5 °F 24.1 °F 79% 29.69 in 10.0 mi South 19.6 mph - N/A   Partly Cloudy
11:53 AM 30.0 °F 18.3 °F 24.1 °F 79% 29.68 in 10.0 mi South 17.3 mph - N/A   Overcast
12:53 PM 30.0 °F 17.5 °F 24.1 °F 79% 29.68 in 10.0 mi SSW 19.6 mph - N/A   Mostly Cloudy
1:53 PM 30.0 °F 17.2 °F 23.0 °F 75% 29.67 in 10.0 mi SSW 20.7 mph - N/A   Mostly Cloudy
3:53 PM 30.0 °F 16.9 °F 23.0 °F 75% 29.66 in 10.0 mi SW 21.9 mph - N/A   Scattered Clouds
4:53 PM 30.9 °F 16.9 °F 23.0 °F 72% 29.65 in 10.0 mi SW 26.5 mph - N/A   Clear
5:53 PM 27.0 °F 12.2 °F 19.9 °F 75% 29.67 in 10.0 mi SSW 24.2 mph - N/A   Clear
6:53 PM 25.0 °F 10.2 °F 19.0 °F 78% 29.68 in 10.0 mi SSW 21.9 mph - N/A   Clear
7:53 PM 24.1 °F 9.4 °F 18.0 °F 77% 29.68 in 10.0 mi South 20.7 mph - N/A   Clear
8:53 PM 23.0 °F 8.0 °F 17.1 °F 78% 29.68 in 10.0 mi SSW 20.7 mph - N/A   Clear
9:53 PM 21.9 °F 6.9 °F 16.0 °F 78% 29.68 in 10.0 mi South 19.6 mph - N/A   Clear
10:53 PM 23.0 °F 8.0 °F 17.1 °F 78% 29.67 in 10.0 mi South 20.7 mph - N/A   Clear
11:53 PM 21.9 °F 6.5 °F 17.1 °F 82% 29.66 in 10.0 mi South 20.7 mph - N/A   Clear